FLOCK 1E-9

Last updated on Feb. 8, 2016, 9:33 a.m. UTC

1 40736U 98067GN  16039.02904015  .12989438  12655-4  21586-3 0  9992
2 40736  51.6394 327.5662 0003320 306.5170  54.1203 16.47974792 32580

Satellite is not in orbit.